JR3QFB-13 Weather Reports


time (UTC)temp
C
wind
direction
speed
KPH
gust
KPH
rain 1hr
cm
rain 24hr
cm
rain mn
cm
humidity
%
barometer
mb
20260904232857 27 135 3.2 4.8 0.00 0.00 0.00 79 1009.7
20260904231353 27 135 0.0 4.8 0.00 0.00 0.00 79 1009.8
20260904225851 27 135 1.6 3.2 0.00 0.00 0.00 79 1010.0
20260904222849 27 54 3.2 4.8 0.00 0.00 0.00 79 1009.9
20260904221343 27 45 1.6 4.8 0.00 0.00 0.00 79 1010.1
20260904215841 27 45 0.0 1.6 0.00 0.00 0.00 79 1010.1
20260904214338 27 45 1.6 1.6 0.00 0.00 0.00 79 1010.0
20260904212837 27 45 1.6 3.2 0.00 0.00 0.00 79 1009.9
20260904211333 27 45 1.6 1.6 0.00 0.00 0.00 79 1009.6
20260904205831 27 45 0.0 3.2 0.00 0.00 0.00 79 1009.5
20260904204328 27 45 0.0 3.2 0.00 0.00 0.00 79 1009.3
20260904202827 27 45 1.6 4.8 0.00 0.00 0.00 79 1009.3
20260904201323 27 45 1.6 3.2 0.00 0.00 0.00 78 1009.1
20260904195820 27 45 3.2 4.8 0.00 0.00 0.00 78 1009.2
20260904194318 27 45 3.2 4.8 0.00 0.00 0.00 78 1009.2
20260904192816 27 45 3.2 4.8 0.00 0.00 0.00 79 1009.1
20260904191313 27 45 3.2 4.8 0.00 0.00 0.00 79 1009.1
20260904185810 27 45 3.2 6.4 0.00 0.00 0.00 79 1009.2
20260904184308 27 45 3.2 3.2 0.00 0.00 0.00 80 1009.1
20260904182806 27 45 0.0 4.8 0.00 0.00 0.00 79 1009.0
20260904181303 27 90 1.6 4.8 0.00 0.00 0.00 80 1009.0
20260904175800 27 56 4.8 6.4 0.00 0.00 0.00 80 1009.0
20260904174258 27 0 1.6 6.4 0.00 0.00 0.00 80 1009.0
20260904172756 27 337 3.2 8.0 0.00 0.00 0.00 81 1009.2
20260904171253 27 315 0.0 3.2 0.00 0.00 0.00 81 1009.2
20260904165750 27 315 1.6 4.8 0.00 0.00 0.00 82 1009.4
20260904164248 27 315 1.6 3.2 0.00 0.00 0.00 82 1009.4
20260904162746 28 315 1.6 1.6 0.00 0.00 0.00 81 1009.5
20260904161243 28 315 1.6 4.8 0.00 0.00 0.00 81 1009.2
20260904155740 28 315 1.6 4.8 0.00 0.00 0.00 81 1009.0
20260904154238 28 0 0.0 8.0 0.00 0.00 0.00 81 1008.8
20260904152736 28 0 1.6 4.8 0.00 0.00 0.00 82 1008.9
20260904151233 28 0 0.0 4.8 0.00 0.00 0.00 83 1008.5
20260904145730 28 0 3.2 6.4 0.00 0.00 0.00 83 1009.2
20260904144228 28 0 1.6 1.6 0.00 0.00 0.00 83 1008.9
20260904142726 28 0 3.2 6.4 0.00 0.00 0.00 82 1008.5
20260904141223 28 337 4.8 6.4 0.00 0.00 0.00 83 1008.6
20260904135720 28 337 1.6 6.4 0.00 0.00 0.00 84 1008.8
20260904134218 28 337 3.2 4.8 0.00 0.00 0.00 84 1009.2
20260904132716 28 337 3.2 8.0 0.00 0.00 0.00 84 1009.1
20260904131213 28 337 1.6 3.2 0.00 0.00 0.00 85 1009.3
20260904125710 28 337 3.2 6.4 0.00 0.00 0.00 84 1008.9
20260904124208 28 337 3.2 6.4 0.00 0.00 0.00 85 1009.2
20260904122706 28 337 3.2 3.2 0.00 0.00 0.00 85 1009.2
20260904121203 28 337 0.0 1.6 0.00 0.00 0.00 85 1008.8
20260904115700 28 337 1.6 3.2 0.00 0.00 0.00 84 1009.4
20260904114158 28 337 1.6 4.8 0.00 0.00 0.00 84 1009.5
20260904111148 28 337 3.2 3.2 0.00 0.00 0.00 84 1009.9
20260904105645 28 337 0.0 3.2 0.00 0.00 0.00 84 1009.6
20260904104143 28 337 0.0 3.2 0.00 0.00 0.00 83 1009.1
20260904102641 28 315 4.8 8.0 0.00 0.00 0.00 84 1008.6
20260904101138 28 45 3.2 8.0 0.00 0.00 0.00 85 1008.9
20260904095635 28 90 1.6 4.8 0.00 0.00 0.00 85 1008.5
20260904094133 28 90 1.6 1.6 0.00 0.00 0.00 85 1009.0
20260904092631 28 90 0.0 0.0 0.00 0.00 0.00 86 1009.3
20260904091128 28 87 0.0 0.0 0.00 0.00 0.00 84 1008.6
20260904085625 28 90 0.0 1.6 0.00 0.00 0.00 84 1008.2
20260904084123 28 90 0.0 0.0 0.00 0.00 0.00 83 1008.6
20260904082621 28 135 0.0 1.6 0.00 0.00 0.00 84 1009.1
20260904081118 28 135 0.0 4.8 0.00 0.00 0.00 84 1009.5
20260904075615 28 45 0.0 1.6 0.00 0.00 0.00 84 1009.7
20260904074113 28 45 1.6 4.8 0.00 0.00 0.00 84 1009.0
20260904072611 28 45 3.2 3.2 0.00 0.00 0.00 84 1009.1
20260904071108 28 45 1.6 1.6 0.00 0.00 0.00 83 1009.4
20260904065605 28 45 1.6 1.6 0.00 0.00 0.00 83 1009.5
20260904064103 28 45 1.6 1.6 0.00 0.00 0.00 83 1010.0
20260904062601 28 45 1.6 1.6 0.00 0.00 0.00 83 1010.3
20260904061058 28 112 1.6 1.6 0.00 0.00 0.00 82 1010.2
20260904055559 28 112 0.0 1.6 0.00 0.00 0.00 82 1009.1
20260904054058 28 112 0.0 3.2 0.00 0.00 0.00 82 1009.0
20260904052551 28 112 1.6 4.8 0.00 0.00 0.00 82 1008.6
20260904051053 28 112 1.6 3.2 0.00 0.00 0.00 82 1008.8
20260904045545 28 135 1.6 3.2 0.00 0.00 0.00 82 1009.3
20260904044057 28 135 0.0 0.0 0.00 0.00 0.00 82 1009.6
20260904042541 28 135 0.0 3.2 0.00 0.00 0.00 82 1009.1
20260904041038 28 135 1.6 1.6 0.00 0.00 0.00 82 1009.4
20260904035535 29 135 1.6 4.8 0.00 0.00 0.00 81 1009.6
20260904034036 29 135 0.0 3.2 0.00 0.00 0.00 82 1009.5
20260904032531 29 112 0.0 3.2 0.00 0.00 0.00 82 1010.1
20260904031028 29 112 0.0 3.2 0.00 0.00 0.00 81 1010.0
20260904025525 29 112 3.2 6.4 0.00 0.00 0.00 81 1009.8
20260904024023 29 157 0.0 1.6 0.00 0.00 0.00 83 1009.9
20260904022521 29 135 0.0 1.6 0.00 0.00 0.00 83 1010.1
20260904021018 28 135 1.6 1.6 0.00 0.00 0.00 84 1009.8
20260904015515 29 180 0.0 1.6 0.00 0.00 0.00 84 1010.2
20260904014013 28 180 0.0 1.6 0.00 0.00 0.00 83 1010.3
20260904012511 28 135 0.0 3.2 0.00 0.00 0.00 83 1009.7
20260904011007 28 135 1.6 4.8 0.00 0.00 0.00 83 1009.7
20260904005505 28 112 0.0 4.8 0.00 0.00 0.00 83 1009.9
20260904004002 28 112 0.0 4.8 0.00 0.00 0.00 83 1010.1
20260904002501 28 112 1.6 6.4 0.00 0.00 0.00 83 1010.2
20260904000958 28 112 3.2 6.4 0.00 0.00 0.00 83 1010.4
20260903235455 28 112 3.2 6.4 0.00 0.00 0.00 82 1009.4
20260903233953 28 135 3.2 4.8 0.00 0.00 0.00 83 1010.0